User: anonymous   Login
Location: Oronoko Observatory
(41.9167°N, 86.3833°W)
Time: 10:02:10
(UTC-04:00)
Language:

PAYLOAD A - Orbit

View from above orbital plane
View from above orbital plane
View from above satellite
View from above satellite

Ground track
Ground track

The orbit data is extracted from the following two-line orbital elements,

1 27840U 03031A   16176.52456374 -.00000027  00000-0  47285-5 0  9996
2 27840  98.1957 183.6849 0099461 117.0020 244.1366 14.38857508681887
Epoch (UTC): 24 June 2016 12:35:22
Eccentricity: 0.0099461
inclination: 98.1957°
perigee height: 691 km
apogee height: 833 km
right ascension of ascending node: 183.6849°
argument of perigee: 117.0020°
revolutions per day: 14.38857508
mean anomaly at epoch: 244.1366°
orbit number at epoch: 68188

The dashed part of the orbit path shows where the satellite is in the earth's shadow,  

DLR